Date String (YYYY-MM-DD hh:mm:ss) UTC,Instrument flags,absolute air pressure of the measurement (hPa),sample flow rate (lpm),inlet stack bypass flow (lpm),air temperature of the measurement (°C),ambient temperature measured by the external sensor (°C),aerosol sample conditioner tube jacket temperature (°C),OPC LED temperature (°C),internal box temperature (°C),relative humidity of the measurement (%),span deviation,mass concentration of particles derived from Lorenz-Mie calculation of OPC scattering (μg/m³),mass concentration of particles derived from Lorenz-Mie calculation of OPC scattering (μg/m³),mass concentration of particles derived from Lorenz-Mie calculation of OPC scattering (μg/m³)
DateTimeUTC,F1_M11,P_M11,Q1_M11,Q2_M11,T1_M11,T2_M11,T3_M11,T4_M11,T5_M11,U1_M11,ZSPAN_M11,X2_M11,X0_M11,X1_M11
2023-10-23 23:00:00,SystemResetWarning,0821.1,5.00,000.00,028.3,024.9,000.0,036.6,030.0,14.1,0000.0,0005.59,0015.74,0004.36
2023-10-23 23:01:00,SystemResetWarning,0820.8,5.01,000.00,028.2,024.1,000.0,036.5,029.8,14.1,0000.0,0005.62,0015.98,0004.36
2023-10-23 23:02:00,SystemResetWarning,0821.0,5.01,000.00,028.1,024.4,000.0,036.5,029.7,14.1,0000.0,0005.65,0017.18,0004.36
2023-10-23 23:03:00,SystemResetWarning,0821.2,4.99,000.00,028.1,024.7,000.0,036.5,029.6,14.2,0000.0,0005.65,0016.60,0004.37
2023-10-23 23:04:00,SystemResetWarning,0821.1,5.00,000.00,028.1,025.2,000.0,036.5,029.6,14.3,0000.0,0005.62,0016.47,0004.37
2023-10-23 23:05:00,SystemResetWarning,0821.1,5.00,000.00,028.1,025.7,000.0,036.5,029.7,14.4,0000.0,0005.70,0016.44,0004.37
2023-10-23 23:06:00,SystemResetWarning,0820.9,5.00,000.00,028.1,026.0,000.0,036.5,029.8,14.2,0000.0,0005.72,0015.74,0004.36
2023-10-23 23:07:00,SystemResetWarning,0821.0,5.00,000.00,028.1,026.4,000.0,036.5,029.9,14.2,0000.0,0005.76,0017.36,0004.35
2023-10-23 23:08:00,SystemResetWarning,0821.1,4.99,000.00,028.2,026.7,000.0,036.6,030.0,14.3,0000.0,0005.75,0018.63,0004.32
2023-10-23 23:09:00,SystemResetWarning,0821.1,5.00,000.00,028.2,026.9,000.0,036.6,030.1,14.3,0000.0,0005.75,0019.79,0004.29
2023-10-23 23:10:00,SystemResetWarning,0821.1,5.00,000.00,028.3,027.2,000.0,036.6,030.2,14.3,0000.0,0005.76,0020.58,0004.27
2023-10-23 23:11:00,SystemResetWarning,0821.1,5.00,000.00,028.3,027.4,000.0,036.6,030.2,14.3,0000.0,0005.79,0020.49,0004.24
2023-10-23 23:12:00,SystemResetWarning,0821.1,4.98,000.00,028.4,027.3,000.0,036.7,030.3,14.2,0000.0,0005.81,0022.07,0004.22
2023-10-23 23:13:00,SystemResetWarning,0821.0,5.00,000.00,028.4,025.6,000.0,036.6,030.1,14.2,0000.0,0005.83,0021.18,0004.21
2023-10-23 23:14:00,SystemResetWarning,0821.1,5.00,000.00,028.3,024.2,000.0,036.6,029.9,14.2,0000.0,0005.83,0020.41,0004.19
2023-10-23 23:15:00,SystemResetWarning,0821.1,5.01,000.00,028.2,024.2,000.0,036.5,029.8,14.3,0000.0,0005.82,0019.98,0004.16
2023-10-23 23:16:00,SystemResetWarning,0821.1,5.01,000.00,028.1,024.6,000.0,036.5,029.6,14.4,0000.0,0005.79,0019.79,0004.16
2023-10-23 23:17:00,SystemResetWarning,0821.1,5.00,000.00,028.1,025.0,000.0,036.5,029.7,14.5,0000.0,0005.80,0019.92,0004.16
2023-10-23 23:18:00,SystemResetWarning,0821.1,5.00,000.00,028.1,025.5,000.0,036.6,029.7,14.6,0000.0,0005.79,0019.29,0004.14
2023-10-23 23:19:00,SystemResetWarning,0821.3,5.01,000.00,028.1,025.9,000.0,036.6,029.8,14.6,0000.0,0005.85,0019.06,0004.14
2023-10-23 23:20:00,SystemResetWarning,0821.4,5.00,000.00,028.1,026.3,000.0,036.6,029.9,14.6,0000.0,0005.90,0019.00,0004.15
2023-10-23 23:21:00,SystemResetWarning,0821.2,5.00,000.00,028.2,026.6,000.0,036.6,030.0,14.6,0000.0,0005.92,0018.57,0004.15
2023-10-23 23:22:00,SystemResetWarning,0821.1,5.01,000.00,028.2,026.8,000.0,036.6,030.1,14.6,0000.0,0006.03,0019.54,0004.16
2023-10-23 23:23:00,SystemResetWarning,0821.1,5.00,000.00,028.3,027.1,000.0,036.6,030.1,14.6,0000.0,0006.04,0019.12,0004.16
2023-10-23 23:24:00,SystemResetWarning,0821.1,4.99,000.00,028.3,027.3,000.0,036.6,030.2,14.6,0000.0,0005.99,0018.90,0004.15
2023-10-23 23:25:00,SystemResetWarning,0821.2,4.99,000.00,028.4,027.4,000.0,036.7,030.3,14.6,0000.0,0006.05,0020.35,0004.14
2023-10-23 23:26:00,SystemResetWarning,0821.1,4.99,000.00,028.4,026.3,000.0,036.7,030.2,14.6,0000.0,0006.14,0023.08,0004.14
2023-10-23 23:27:00,SystemResetWarning,0821.1,5.00,000.00,028.3,024.5,000.0,036.6,029.9,14.7,0000.0,0006.23,0025.99,0004.13
2023-10-23 23:28:00,SystemResetWarning,0821.1,5.01,000.00,028.2,024.1,000.0,036.5,029.8,14.7,0000.0,0006.37,0028.91,0004.13
2023-10-23 23:29:00,SystemResetWarning,0821.1,5.00,000.00,028.2,024.4,000.0,036.5,029.7,14.8,0000.0,0006.47,0029.65,0004.14
2023-10-23 23:30:00,SystemResetWarning,0821.1,4.99,000.00,028.1,024.8,000.0,036.5,029.6,14.9,0000.0,0006.54,0030.87,0004.14
2023-10-23 23:31:00,SystemResetWarning,0821.2,5.00,000.00,028.1,025.3,000.0,036.5,029.7,14.9,0000.0,0006.67,0031.86,0004.15
2023-10-23 23:32:00,SystemResetWarning,0821.2,5.01,000.00,028.1,025.7,000.0,036.6,029.8,15.0,0000.5,0006.85,0031.93,0004.16
2023-10-23 23:33:00,SystemResetWarning,0821.2,4.99,000.00,028.1,026.1,000.0,036.6,029.9,15.0,0002.0,0006.87,0032.40,0004.17
2023-10-23 23:34:00,SystemResetWarning,0821.2,4.99,000.00,028.2,026.4,000.0,036.6,029.9,15.0,0001.7,0007.05,0034.53,0004.17
2023-10-23 23:35:00,SystemResetWarning,0821.2,5.00,000.00,028.2,026.7,000.0,036.6,030.0,15.0,0002.8,0007.19,0035.53,0004.18
2023-10-23 23:36:00,SystemResetWarning,0821.2,5.01,000.00,028.2,027.0,000.0,036.6,030.1,14.9,0002.4,0007.25,0034.98,0004.19
2023-10-23 23:37:00,SystemResetWarning,0821.2,5.01,000.00,028.3,027.2,000.0,036.6,030.2,14.8,0003.1,0007.29,0035.01,0004.20
2023-10-23 23:38:00,SystemResetWarning,0821.2,5.01,000.00,028.4,027.4,000.0,036.7,030.2,14.8,0002.1,0007.33,0034.35,0004.20
2023-10-23 23:39:00,SystemResetWarning,0821.2,4.99,000.00,028.4,027.4,000.0,036.7,030.3,14.7,0003.3,0007.38,0033.47,0004.21
2023-10-23 23:40:00,SystemResetWarning,0821.1,5.00,000.00,028.4,026.1,000.0,036.7,030.2,14.7,0003.1,0007.46,0033.77,0004.22
2023-10-23 23:41:00,SystemResetWarning,0821.1,5.01,000.00,028.3,024.3,000.0,036.6,029.9,14.6,0002.5,0007.53,0033.63,0004.22
2023-10-23 23:42:00,SystemResetWarning,0821.4,5.02,000.00,028.2,024.1,000.0,036.6,029.8,14.6,0002.8,0007.52,0033.34,0004.24
2023-10-23 23:43:00,SystemResetWarning,0821.4,4.99,000.00,028.1,024.4,000.0,036.5,029.6,14.5,0002.9,0007.51,0033.99,0004.24
2023-10-23 23:44:00,SystemResetWarning,0821.2,4.99,000.00,028.1,024.9,000.0,036.6,029.6,14.6,0001.9,0007.55,0034.00,0004.25
2023-10-23 23:45:00,SystemResetWarning,0821.0,5.00,000.00,028.1,025.3,000.0,036.6,029.7,14.6,0003.3,0007.53,0032.67,0004.28
2023-10-23 23:46:00,SystemResetWarning,0821.2,5.01,000.00,028.1,025.8,000.0,036.6,029.8,14.6,0003.6,0007.53,0032.83,0004.30
2023-10-23 23:47:00,SystemResetWarning,0821.3,4.99,000.00,028.1,026.1,000.0,036.6,029.9,14.5,0004.1,0007.49,0034.79,0004.32
2023-10-23 23:48:00,SystemResetWarning,0821.4,4.99,000.00,028.2,026.5,000.0,036.6,029.9,14.5,0004.0,0007.52,0033.91,0004.33
2023-10-23 23:49:00,SystemResetWarning,0821.1,5.00,000.00,028.2,026.8,000.0,036.6,030.0,14.5,0000.3,0007.53,0032.62,0004.37
2023-10-23 23:50:00,SystemResetWarning,0821.1,5.00,000.00,028.3,027.0,000.0,036.6,030.1,14.6,0002.6,0007.48,0032.37,0004.40
2023-10-23 23:51:00,SystemResetWarning,0821.2,5.01,000.00,028.3,027.2,000.0,036.7,030.2,14.6,0004.4,0007.40,0032.24,0004.41
2023-10-23 23:52:00,SystemResetWarning,0821.2,5.01,000.00,028.4,027.4,000.0,036.7,030.2,14.5,0004.5,0007.34,0032.08,0004.44
2023-10-23 23:53:00,SystemResetWarning,0821.2,4.98,000.00,028.4,026.6,000.0,036.7,030.2,14.5,0004.4,0007.27,0031.14,0004.46
2023-10-23 23:54:00,SystemResetWarning,0821.3,5.00,000.00,028.3,024.6,000.0,036.6,030.0,14.6,0004.3,0007.20,0030.52,0004.47
2023-10-23 23:55:00,SystemResetWarning,0821.3,5.02,000.00,028.2,023.9,000.0,036.5,029.8,14.6,0003.9,0007.20,0030.33,0004.50
2023-10-23 23:56:00,SystemResetWarning,0821.3,5.00,000.00,028.2,024.2,000.0,036.5,029.6,14.7,0002.1,0007.20,0029.79,0004.52
2023-10-23 23:57:00,SystemResetWarning,0821.4,5.00,000.00,028.1,024.6,000.0,036.5,029.5,14.8,0002.0,0007.17,0029.66,0004.52
2023-10-23 23:58:00,SystemResetWarning,0821.3,5.01,000.00,028.0,025.0,000.0,036.6,029.6,14.8,0000.0,0007.20,0028.36,0004.52
2023-10-23 23:59:00,SystemResetWarning,0821.4,4.99,000.00,028.0,025.5,000.0,036.6,029.7,14.8,0002.0,0007.21,0027.76,0004.52
